• In United Kingdom
  • List of Countries
  • For 7 days
  • Water Temperature
  • Satellite Maps
  • Weather Map
  • Weather Widgets
  • user-avatar
    Login

    Hourly Weather Bogota

    Today, 20 February, Tuesday

    Time Temperature Precipitation Wind Pressure Humidity
    00:00 +11°C° 0.1 mm 1 mps 548 mmHg 88%
    01:00 +10°C° 0 mm 1 mps 548 mmHg 90%
    02:00 +10°C° 0.3 mm 1 mps 548 mmHg 90%
    03:00 +10°C° 0.3 mm 1 mps 548 mmHg 89%
    04:00 +10°C° 0.3 mm 1 mps 548 mmHg 89%
    05:00 +10°C° 0.1 mm 1 mps 548 mmHg 89%
    06:00 +10°C° 0.1 mm 1 mps 548 mmHg 88%
    07:00 +10°C° 0.1 mm 1 mps 549 mmHg 88%
    08:00 +12°C° 0 mm 1 mps 550 mmHg 81%
    09:00 +13°C° 0 mm 1 mps 551 mmHg 75%
    10:00 +15°C° 0 mm 1 mps 552 mmHg 69%
    11:00 +15°C° 0.1 mm 1 mps 552 mmHg 68%
    12:00 +15°C° 0.1 mm 1 mps 551 mmHg 67%
    13:00 +15°C° 0.1 mm 1 mps 551 mmHg 66%
    14:00 +15°C° 0.1 mm 1 mps 551 mmHg 65%
    15:00 +15°C° 0.1 mm 1 mps 550 mmHg 65%
    16:00 +15°C° 0.1 mm 1 mps 550 mmHg 65%
    17:00 +14°C° 0 mm 1 mps 549 mmHg 70%
    18:00 +13°C° 0 mm 1 mps 548 mmHg 76%
    19:00 +10°C° 0 mm 0 mps 548 mmHg 81%
    20:00 +11°C° 0 mm 1 mps 548 mmHg 81%
    21:00 +11°C° 0 mm 1 mps 549 mmHg 81%
    22:00 +11°C° 0 mm 1 mps 549 mmHg 81%
    23:00 +10°C° 0 mm 1 mps 549 mmHg 81%

    Tomorrow, 21 February, Wednesday

    Time Temperature Precipitation Wind Pressure Humidity
    00:00 +9°C° 0 mm 0 mps 549 mmHg 81%
    01:00 +9°C° 0 mm 0 mps 548 mmHg 81%
    02:00 +9°C° 0 mm 0 mps 548 mmHg 82%
    03:00 +8°C° 0 mm 0 mps 548 mmHg 82%
    04:00 +8°C° 0 mm 0 mps 548 mmHg 83%
    05:00 +9°C° 0 mm 0 mps 548 mmHg 82%
    06:00 +9°C° 0 mm 0 mps 549 mmHg 80%
    07:00 +9°C° 0 mm 0 mps 549 mmHg 79%
    08:00 +12°C° 0 mm 1 mps 551 mmHg 73%
    09:00 +14°C° 0 mm 1 mps 552 mmHg 66%
    10:00 +16°C° 0 mm 1 mps 553 mmHg 60%
    11:00 +16°C° 0 mm 1 mps 553 mmHg 59%
    12:00 +16°C° 0 mm 1 mps 552 mmHg 59%
    13:00 +18°C° 0 mm 1 mps 552 mmHg 58%
    14:00 +16°C° 0.1 mm 1 mps 551 mmHg 60%
    15:00 +16°C° 0.1 mm 1 mps 550 mmHg 62%
    16:00 +16°C° 0.1 mm 1 mps 550 mmHg 64%
    17:00 +14°C° 0.2 mm 1 mps 549 mmHg 69%
    18:00 +13°C° 0.2 mm 1 mps 549 mmHg 74%
    19:00 +11°C° 0.2 mm 1 mps 548 mmHg 79%
    20:00 +11°C° 0.2 mm 1 mps 549 mmHg 80%
    21:00 +11°C° 0.2 mm 1 mps 549 mmHg 80%
    22:00 +11°C° 0.2 mm 1 mps 550 mmHg 80%
    23:00 +10°C° 0.1 mm 1 mps 549 mmHg 81%

    Day after tomorrow, 22 February, Thursday

    Time Temperature Precipitation Wind Pressure Humidity
    00:00 +10°C° 0.1 mm 1 mps 549 mmHg 82%
    01:00 +9°C° 0.1 mm 1 mps 549 mmHg 82%
    02:00 +8°C° 0 mm 0 mps 548 mmHg 83%
    03:00 +8°C° 0 mm 0 mps 548 mmHg 83%
    04:00 +8°C° 0 mm 0 mps 548 mmHg 84%
    05:00 +8°C° 0 mm 0 mps 548 mmHg 83%
    06:00 +9°C° 0 mm 0 mps 549 mmHg 83%
    07:00 +10°C° 0 mm 1 mps 550 mmHg 82%
    08:00 +12°C° 0 mm 1 mps 551 mmHg 77%
    09:00 +13°C° 0 mm 1 mps 552 mmHg 71%
    10:00 +15°C° 0 mm 1 mps 553 mmHg 65%
    11:00 +15°C° 0.2 mm 1 mps 552 mmHg 66%
    12:00 +15°C° 0.2 mm 1 mps 551 mmHg 68%
    13:00 +14°C° 0.2 mm 2 mps 551 mmHg 69%
    14:00 +15°C° 0.6 mm 1 mps 550 mmHg 69%
    15:00 +15°C° 0.6 mm 1 mps 550 mmHg 69%
    16:00 +15°C° 0.6 mm 1 mps 549 mmHg 69%
    17:00 +13°C° 0.5 mm 1 mps 549 mmHg 74%
    18:00 +12°C° 0.5 mm 1 mps 548 mmHg 79%
    19:00 +10°C° 0.5 mm 0 mps 548 mmHg 84%
    20:00 +10°C° 0.1 mm 1 mps 548 mmHg 84%
    21:00 +10°C° 0.1 mm 1 mps 549 mmHg 85%
    22:00 +10°C° 0.1 mm 1 mps 549 mmHg 85%
    23:00 +10°C° 0 mm 1 mps 549 mmHg 85%

    23 February, Friday

    Time Temperature Precipitation Wind Pressure Humidity
    00:00 +9°C° 0 mm 0 mps 549 mmHg 84%
    01:00 +9°C° 0 mm 0 mps 548 mmHg 84%
    02:00 +8°C° 0.1 mm 0 mps 548 mmHg 85%
    03:00 +8°C° 0.1 mm 0 mps 548 mmHg 85%
    04:00 +8°C° 0.1 mm 0 mps 548 mmHg 85%
    05:00 +9°C° 0.1 mm 0 mps 549 mmHg 85%
    06:00 +9°C° 0.1 mm 0 mps 549 mmHg 84%
    07:00 +9°C° 0.1 mm 0 mps 550 mmHg 84%
    08:00 +11°C° 0 mm 1 mps 550 mmHg 78%
    09:00 +13°C° 0 mm 1 mps 551 mmHg 72%
    10:00 +14°C° 0 mm 1 mps 552 mmHg 67%
    11:00 +15°C° 0.1 mm 1 mps 552 mmHg 64%
    12:00 +16°C° 0.1 mm 1 mps 552 mmHg 61%
    13:00 +18°C° 0.1 mm 1 mps 552 mmHg 58%
    14:00 +18°C° 0.4 mm 1 mps 551 mmHg 60%
    15:00 +16°C° 0.4 mm 1 mps 550 mmHg 63%
    16:00 +16°C° 0.4 mm 1 mps 549 mmHg 65%
    17:00 +14°C° 0.3 mm 1 mps 549 mmHg 72%
    18:00 +13°C° 0.3 mm 1 mps 548 mmHg 78%
    19:00 +10°C° 0.3 mm 0 mps 548 mmHg 85%
    20:00 +10°C° 0.2 mm 0 mps 548 mmHg 85%
    21:00 +10°C° 0.2 mm 1 mps 548 mmHg 85%
    22:00 +10°C° 0.2 mm 1 mps 549 mmHg 85%
    23:00 +10°C° 0.3 mm 1 mps 548 mmHg 86%

    24 February, Saturday

    Time Temperature Precipitation Wind Pressure Humidity
    00:00 +10°C° 0.3 mm 1 mps 548 mmHg 86%
    01:00 +9°C° 0.3 mm 1 mps 548 mmHg 86%
    02:00 +9°C° 0.2 mm 1 mps 548 mmHg 86%
    03:00 +9°C° 0.2 mm 1 mps 547 mmHg 87%
    04:00 +9°C° 0.2 mm 1 mps 547 mmHg 87%
    05:00 +9°C° 0.1 mm 1 mps 548 mmHg 86%
    06:00 +9°C° 0.1 mm 1 mps 548 mmHg 85%
    07:00 +9°C° 0.1 mm 0 mps 549 mmHg 83%
    08:00 +11°C° 0 mm 1 mps 550 mmHg 75%
    09:00 +13°C° 0 mm 1 mps 551 mmHg 68%
    10:00 +15°C° 0 mm 1 mps 552 mmHg 60%
    11:00 +16°C° 0.1 mm 1 mps 552 mmHg 58%
    12:00 +18°C° 0.1 mm 1 mps 552 mmHg 56%
    13:00 +18°C° 0.1 mm 1 mps 551 mmHg 54%
    14:00 +18°C° 0.4 mm 1 mps 550 mmHg 57%
    15:00 +18°C° 0.4 mm 1 mps 550 mmHg 59%
    16:00 +16°C° 0.4 mm 1 mps 549 mmHg 62%
    17:00 +14°C° 0.4 mm 1 mps 549 mmHg 69%
    18:00 +13°C° 0.4 mm 1 mps 548 mmHg 75%
    19:00 +11°C° 0.4 mm 1 mps 548 mmHg 82%
    20:00 +11°C° 0.3 mm 1 mps 548 mmHg 82%
    21:00 +10°C° 0.3 mm 1 mps 548 mmHg 83%
    22:00 +10°C° 0.3 mm 1 mps 549 mmHg 83%
    23:00 +10°C° 0.2 mm 1 mps 549 mmHg 84%

    25 February, Sunday

    Time Temperature Precipitation Wind Pressure Humidity
    00:00 +10°C° 0.2 mm 1 mps 548 mmHg 84%
    01:00 +9°C° 0.2 mm 1 mps 548 mmHg 84%
    02:00 +9°C° 0.1 mm 1 mps 548 mmHg 84%
    03:00 +9°C° 0.1 mm 1 mps 548 mmHg 84%
    04:00 +9°C° 0.1 mm 1 mps 548 mmHg 84%
    05:00 +8°C° 0 mm 0 mps 548 mmHg 83%
    06:00 +8°C° 0 mm 0 mps 549 mmHg 82%
    07:00 +9°C° 0 mm 0 mps 549 mmHg 81%
    08:00 +12°C° 0 mm 1 mps 550 mmHg 74%
    09:00 +13°C° 0 mm 1 mps 551 mmHg 68%
    10:00 +15°C° 0 mm 1 mps 552 mmHg 61%
    11:00 +16°C° 0.1 mm 1 mps 552 mmHg 59%
    12:00 +16°C° 0.1 mm 1 mps 552 mmHg 57%
    13:00 +18°C° 0.1 mm 1 mps 552 mmHg 55%
    14:00 +18°C° 0.3 mm 1 mps 551 mmHg 57%
    15:00 +18°C° 0.3 mm 1 mps 550 mmHg 59%
    16:00 +16°C° 0.3 mm 1 mps 550 mmHg 61%
    17:00 +15°C° 0.4 mm 1 mps 549 mmHg 68%
    18:00 +13°C° 0.4 mm 1 mps 549 mmHg 75%
    19:00 +11°C° 0.4 mm 1 mps 548 mmHg 82%
    20:00 +11°C° 0.2 mm 1 mps 548 mmHg 82%
    21:00 +10°C° 0.2 mm 1 mps 549 mmHg 83%
    22:00 +10°C° 0.2 mm 1 mps 549 mmHg 84%
    23:00 +10°C° 0.2 mm 1 mps 549 mmHg 84%
    Show more